Regional Weather Roundup
Issued by NWS

Home | Current Version | Previous Version | Graphics & Text | Print | Product List | Glossary On
Versions: 1 2 3 4 5 6 7 8 9 10 11 12 13 14 15 16 17 18 19 20 21 22 23 24 25 26 27 28 29 30 31 32 33 34 35 36 37 38 39 40 41 42 43 44 45 46 47 48 49 50
000
ASUS45 KABQ 250010
RWRNM
WEATHER ROUNDUP FOR NEW MEXICO
NATIONAL WEATHER SERVICE ALBUQUERQUE NM
600 PM MDT THU JUL 24 2014

NOTE: "FAIR" MEANS FEW OR NO CLOUDS BELOW 12,000 FEET AGL WITH NO
       SIGNIFICANT WEATHER OR OBSTRUCTIONS TO VISION.

      THIS PRODUCT IS RELEASED AS TWO VERSIONS.  ONE VERSION NEAR
      THE TOP OF THE HOUR CONTAINING PRELIMINARY DATA FROM ALBUQUERQUE
      AND OTHER STATIONS.  A FINAL VERSION WITH ADDITIONAL DATA IS
      ISSUED ABOUT 10 MINUTES AFTER THE HOUR.

NMZ501-503-504-510>518-250100-
NORTHWEST PLATEAU/NORTHCENTRAL MOUNTAINS

CITY           SKY/WX    TMP DP  RH WIND       PRES   REMARKS
FARMINGTON     SUNNY     89  43  20 VRB5      30.11F
6HR MIN TEMP:  86; 6HR MAX TEMP:  93;

LOS ALAMOS     SUNNY     82  40  22 S16G23    30.29F
SANTA FE       SUNNY     87  41  19 SW15      30.22F
6HR MIN TEMP:  81; 6HR MAX TEMP:  89;

TAOS           SUNNY     84  39  20 SW14G23   30.27F
ANGEL FIRE     FAIR      77  43  29 W9G21     30.38F

$$
NMZ402-403-502-505>509-250100-
WESTCENTRAL MOUNTAINS/SOUTHWEST MOUNTAINS

CITY           SKY/WX    TMP DP  RH WIND       PRES   REMARKS
GALLUP         MOSUNNY   89  32  13 S9        30.21F
6HR MIN TEMP:  84; 6HR MAX TEMP:  91;

GRANTS         CLOUDY    86  39  18 SE14G20   30.24F
SILVER CITY    SUNNY     90  37  15 SE8G21    30.19F

$$
NMZ407-409-411-412-250100-
SOUTHERN DESERTS

CITY           SKY/WX    TMP DP  RH WIND       PRES   REMARKS
LORDSBURG      FAIR      95  41  15 SE17      30.06F
DEMING         SUNNY     94  43  17 S9G21     30.07F
6HR MIN TEMP:  89; 6HR MAX TEMP:  96;

LAS CRUCES     SUNNY     94  39  14 S13       30.11F
HOLLOMAN AFB   MOSUNNY   95  42  15 S10G21    30.06F
ALAMOGORDO     MOSUNNY   95  41  15 S15G22    30.08F
T OR C         MOSUNNY   93  40  15 S13G22    30.12F
6HR MIN TEMP:  86; 6HR MAX TEMP:  95;


$$
NMZ519>523-250100-
CENTRAL VALLEYS/CENTRAL HIGHLANDS

CITY           SKY/WX    TMP DP  RH WIND       PRES   REMARKS
ALBUQUERQUE    MOSUNNY   91  40  16 SW13      30.16F
6HR MIN TEMP:  85; 6HR MAX TEMP:  92;

DOUBLE EAGLE   MOSUNNY   90  43  19 S9        30.21F
MORIARTY ARPT  FAIR      87  40  18 S12       30.23F
6HR MIN TEMP:  83; 6HR MAX TEMP:  90;

CLINES CORNERS SUNNY     84  40  21 S14G23    30.29F
6HR MIN TEMP:  79; 6HR MAX TEMP:  86;

BELEN          FAIR      91  39  16 S13       30.15F
6HR MIN TEMP:  86; 6HR MAX TEMP:  92;

SOCORRO        FAIR      94  37  13 S9G16     30.13F
6HR MIN TEMP:  89; 6HR MAX TEMP:  95;


$$
NMZ524>526-539-540-250100-
SOUTHCENTRAL MOUNTAINS

CITY           SKY/WX    TMP DP  RH WIND       PRES   REMARKS
RUIDOSO        PTSUNNY   81  43  26 MISG      30.33F

$$
NMZ527>531-250100-
NORTHEAST HIGHLANDS/NORTHEAST PLAINS

CITY           SKY/WX    TMP DP  RH WIND       PRES   REMARKS
LAS VEGAS      SUNNY     86  41  20 SW20G25   30.25F
6HR MIN TEMP:  83; 6HR MAX TEMP:  88;

RATON          NOT AVBL
CLAYTON        SUNNY     94  35  12 S22G31    30.07F
6HR MIN TEMP:  92; 6HR MAX TEMP:  97;


$$
NMZ532>537-250100-
EASTCENTRAL PLAINS

CITY           SKY/WX    TMP DP  RH WIND       PRES   REMARKS
TUCUMCARI      SUNNY     97  43  15 SW16      30.05F
6HR MIN TEMP:  94; 6HR MAX TEMP:  99;

CANNON AFB     SUNNY     93  49  22 S9        30.12F
6HR MIN TEMP:  89; 6HR MAX TEMP:  94;

CLOVIS AIRPORT NOT AVBL

$$
NMZ028-029-538-250100-
SOUTHEAST PLAINS

CITY           SKY/WX    TMP DP  RH WIND       PRES   REMARKS
ROSWELL        SUNNY     98  43  15 SE14      30.06F
6HR MIN TEMP:  92; 6HR MAX TEMP:  98;

ARTESIA        SUNNY     95  48  20 SE9       30.05F
CARLSBAD       PTSUNNY  100  40  12 SE12      30.01F HX  95
6HR MIN TEMP:  93; 6HR MAX TEMP: 101;

HOBBS          SUNNY     95  45  17 NE8       30.08F


$$



USA.gov is the U.S. government's official web portal to all federal, state and local government web resources and services.